This is the latest recevied weather packets stored in our database for station/object N7NIP. If no packets are shown the sender has not sent any weather packets the latest 10 day(s).
| Time | Temp. | Humidity | Pressure | Rain* | Wind** | Luminosity | Snow |
|---|---|---|---|---|---|---|---|
| 1778094065 | 12.78° C | 88% | 1034.4 hPa | 0 mm | - | 161 W/m² | - |
| 1778093763 | 12.78° C | 89% | 1034.6 hPa | 0 mm | - | 145 W/m² | - |
| 1778093459 | 12.78° C | 89% | 1034.2 hPa | 0 mm | - | 128 W/m² | - |
| 1778093156 | 12.78° C | 89% | 1034.4 hPa | 0 mm | - | 160 W/m² | - |
| 1778092854 | 12.78° C | 90% | 1034.3 hPa | 0 mm | - | 208 W/m² | - |
| 1778092549 | 12.78° C | 91% | 1034.3 hPa | 0 mm | - | 152 W/m² | - |
| 1778092246 | 12.78° C | 91% | 1034.2 hPa | 0 mm | - | 136 W/m² | - |
| 1778091943 | 12.78° C | 91% | 1033.9 hPa | 0 mm | - | 116 W/m² | - |
| 1778091641 | 12.78° C | 91% | 1034.4 hPa | 0 mm | - | 92 W/m² | - |
| 1778091339 | 12.78° C | 90% | 1034.4 hPa | 0 mm | - | 137 W/m² | - |
| 1778091035 | 12.78° C | 91% | 1034.2 hPa | 0 mm | - | 134 W/m² | - |
| 1778090731 | 12.78° C | 91% | 1034 hPa | 0 mm | - | 138 W/m² | - |
| 1778090428 | 12.78° C | 91% | 1034.3 hPa | 0 mm | - | 78 W/m² | - |
| 1778090125 | 12.78° C | 91% | 1034.1 hPa | 0 mm | - | 122 W/m² | - |
| 1778089821 | 12.78° C | 91% | 1034 hPa | 0 mm | - | 144 W/m² | - |
| 1778089520 | 12.78° C | 93% | 1033.9 hPa | 0 mm | - | 158 W/m² | - |
| 1778089216 | 12.78° C | 93% | 1033.8 hPa | 0 mm | - | 152 W/m² | - |
| 1778088914 | 12.78° C | 93% | 1033.9 hPa | 0 mm | - | 149 W/m² | - |
| 1778088610 | 12.78° C | 93% | 1034 hPa | 0 mm | - | 132 W/m² | - |
| 1778088308 | 12.78° C | 92% | 1034.1 hPa | 0 mm | - | 119 W/m² | - |
| 1778088003 | 12.78° C | 92% | 1034.1 hPa | 0 mm | - | 137 W/m² | - |
| 1778087702 | 12.78° C | 93% | 1034.2 hPa | 0 mm | - | 136 W/m² | - |
| 1778087399 | 12.22° C | 92% | 1034.1 hPa | 0 mm | - | 128 W/m² | - |
| 1778087096 | 12.22° C | 93% | 1034.1 hPa | 0 mm | - | 123 W/m² | - |
| 1778086794 | 12.22° C | 93% | 1034.2 hPa | 0 mm | - | 99 W/m² | - |
* Rain latest hour (hover to see other rain measurements)
** Current wind speed in m/s (hover to see current wind gust speed)